Location: Garbet
(42.8837°N, 1.2115°E)
Time: 08:54:08
(UTC+00:00)

Cosmos 1953 Rocket - Pass Details

Date: 16 March 2026
Orbit: 599 x 626 km, 82.5° (Epoch: 18 April)

Event Time Altitude Azimuth Distance (km) Brightness Sun altitude
Rises 05:34:24 0° 356° (N) 2,887 7.0 -6.6°
Reaches altitude 10° 05:36:40 10° 1° (N) 1,982 6.2 -6.2°
Maximum altitude 05:40:58 54° 79° (E) 752 4.5 -5.4°
Drops below altitude 10° 05:45:17 10° 157° (SSE) 1,982 6.5 -4.6°
Sets 05:47:33 0° 162° (SSE) 2,887 7.2 -4.2°
